Carbondale, IL

4:49 PM CDT on April 30, 2017 (GMT -0500)
Southern Illinois

Weather History for KMDH - September, 2013

Change the Weather History Date:

Thursday, September 5, 2013

  Actual Average Record
Temperature  
Mean Temperature 68 °F -  
Max Temperature 84 °F 84 °F 108 °F (1925)
Min Temperature 53 °F 59 °F 41 °F (1996)
Cooling Degree Days 4    
Growing Degree Days 18 (Base 50)    
Moisture  
Dew Point 57 °F    
Average Humidity 89    
Maximum Humidity 100    
Minimum Humidity 46    
Precipitation  
Precipitation 0.01 in - - ()
Sea Level Pressure  
Sea Level Pressure 30.16 in    
Wind  
Wind Speed 0 mph (East)    
Max Wind Speed 7 mph    
Max Gust Speed -    
Visibility 4 miles    
Events Fog    
Averages and records for this station are not official NWS values.
T = Trace of Precipitation, MM = Missing Value Source: NWS Daily Summary

Daily Weather History Graph

Daily Weather History Graph

Search for Another Location

Airport or City:

Trip Planner

Search our weather history database for the weather conditions in past years. The results will help you decide how hot, cold, wet, or windy it might be!

Date:

Astronomy

Sep. 05, 2013 Rise Set
Actual Time 6:30 AM CDT 7:19 PM CDT
Civil Twilight 6:03 AM CDT 7:46 PM CDT
Nautical Twilight 5:32 AM CDT 8:17 PM CDT
Astronomical Twilight 4:59 AM CDT 8:50 PM CDT
Moon 6:41 AM CDT (9/5) 7:13 PM CDT (9/5)
Length of Visible Light 13h 42m
Length of Day
12h 49m
New Moon, 0% of the Moon is Illuminated
Sep 5
New Moon
Sep 12
First Quarter
Sep 19
Full
Sep 26
Last Quarter
Oct 4
New

Hourly Weather History & Observations

Time (CDT) Temp. Heat Index Dew Point Humidity Pressure Visibility Wind Dir Wind Speed Gust Speed Precip Events Conditions
12:02 AM 60.8 °F - 59.0 °F 94% 30.16 in 2.0 mi Calm Calm - N/A   Clear
12:10 AM 57.2 °F - 57.2 °F 100% 30.16 in 7.0 mi Calm Calm - N/A   Clear
12:46 AM 57.2 °F - 55.4 °F 94% 30.16 in 1.8 mi Calm Calm - N/A   Clear
12:52 AM 57.0 °F - 55.9 °F 96% 30.15 in 0.5 mi Calm Calm - N/A Fog Fog
1:01 AM 57.2 °F - 57.2 °F 100% 30.15 in 0.2 mi Calm Calm - N/A Fog Fog
1:33 AM 57.2 °F - 57.2 °F 100% 30.15 in 0.5 mi Calm Calm - N/A Fog Fog
1:52 AM 57.0 °F - 55.9 °F 96% 30.14 in 0.2 mi Calm Calm - N/A Fog Fog
2:13 AM 55.4 °F - 55.4 °F 100% 30.15 in 0.2 mi Calm Calm - N/A Fog Fog
2:52 AM 55.0 °F - 55.0 °F 100% 30.14 in 0.2 mi Calm Calm - N/A Fog Fog
3:10 AM 55.4 °F - 55.4 °F 100% 30.15 in 0.2 mi Calm Calm - N/A Fog Fog
3:17 AM 55.4 °F - 55.4 °F 100% 30.15 in 0.2 mi Calm Calm - N/A Fog Fog
3:30 AM 55.4 °F - 55.4 °F 100% 30.15 in 0.8 mi Calm Calm - N/A   Mist
3:33 AM 55.4 °F - 55.4 °F 100% 30.15 in 1.2 mi Calm Calm - N/A   Partly Cloudy
3:45 AM 55.4 °F - 53.6 °F 94% 30.15 in 0.8 mi Calm Calm - 0.01 in   Mist
3:52 AM 54.0 °F - 54.0 °F 100% 30.14 in 0.5 mi Calm Calm - 0.01 in Fog Fog
4:13 AM 55.4 °F - 55.4 °F 100% 30.15 in 0.2 mi Calm Calm - N/A Fog Fog
4:22 AM 55.4 °F - 53.6 °F 94% 30.15 in 1.0 mi Calm Calm - N/A   Clear
4:25 AM 55.4 °F - 53.6 °F 94% 30.15 in 3.0 mi Calm Calm - N/A   Clear
4:33 AM 53.6 °F - 53.6 °F 100% 30.15 in 1.8 mi Calm Calm - N/A   Clear
4:38 AM 53.6 °F - 51.8 °F 94% 30.15 in 0.8 mi Calm Calm - N/A   Mist
4:52 AM 55.9 °F - 55.0 °F 97% 30.15 in 1.0 mi Calm Calm - N/A   Mist
5:02 AM 55.4 °F - 55.4 °F 100% 30.16 in 0.8 mi Calm Calm - N/A   Mist
5:08 AM 53.6 °F - 53.6 °F 100% 30.16 in 1.0 mi Calm Calm - N/A   Clear
5:11 AM 53.6 °F - 53.6 °F 100% 30.16 in 3.0 mi Calm Calm - N/A   Clear
5:35 AM 53.6 °F - 53.6 °F 100% 30.16 in 1.8 mi Calm Calm - N/A   Clear
5:45 AM 53.6 °F - 53.6 °F 100% 30.17 in 0.2 mi Calm Calm - N/A Fog Fog
5:52 AM 54.0 °F - 53.1 °F 97% 30.17 in 0.2 mi Calm Calm - N/A Fog Fog
6:03 AM 53.6 °F - 53.6 °F 100% 30.17 in 0.2 mi Calm Calm - N/A Fog Fog
6:34 AM 53.6 °F - 53.6 °F 100% 30.19 in 0.2 mi Calm Calm - N/A Fog Fog
6:42 AM 53.6 °F - 53.6 °F 100% 30.19 in 0.2 mi Calm Calm - N/A Fog Fog
6:52 AM 54.0 °F - 53.1 °F 97% 30.19 in 0.2 mi Calm Calm - N/A Fog Fog
7:06 AM 53.6 °F - 53.6 °F 100% 30.19 in 1.2 mi Calm Calm - N/A   Scattered Clouds
7:08 AM 53.6 °F - 53.6 °F 100% 30.20 in 4.0 mi Calm Calm - N/A   Partly Cloudy
7:52 AM 59.0 °F - 59.0 °F 100% 30.19 in 3.0 mi Calm Calm - N/A   Scattered Clouds
7:58 AM 60.8 °F - 60.8 °F 100% 30.20 in 5.0 mi Calm Calm - N/A   Scattered Clouds
8:52 AM 66.9 °F - 63.0 °F 87% 30.20 in 10.0 mi Calm Calm - N/A   Scattered Clouds
9:52 AM 73.0 °F - 63.0 °F 71% 30.20 in 10.0 mi Calm Calm - N/A   Partly Cloudy
10:52 AM 78.1 °F - 61.0 °F 56% 30.21 in 10.0 mi Calm Calm - N/A   Partly Cloudy
11:52 AM 80.1 °F 80.9 °F 60.1 °F 50% 30.20 in 10.0 mi Variable 3.5 mph - N/A   Scattered Clouds
12:52 PM 82.0 °F 82.7 °F 61.0 °F 49% 30.19 in 10.0 mi ENE 6.9 mph - N/A   Scattered Clouds
1:52 PM 82.9 °F 83.2 °F 60.1 °F 46% 30.17 in 10.0 mi Variable 4.6 mph - N/A   Scattered Clouds
2:52 PM 82.9 °F 84.0 °F 63.0 °F 51% 30.16 in 10.0 mi SSE 4.6 mph - N/A   Scattered Clouds
3:52 PM 84.0 °F 84.5 °F 62.1 °F 47% 30.15 in 10.0 mi Calm Calm - N/A   Scattered Clouds
4:52 PM 84.0 °F 84.9 °F 63.0 °F 49% 30.14 in 10.0 mi Calm Calm - N/A   Clear
5:52 PM 81.0 °F 81.9 °F 62.1 °F 52% 30.14 in 10.0 mi ENE 3.5 mph - N/A   Clear
6:52 PM 73.0 °F - 64.0 °F 73% 30.13 in 10.0 mi NE 3.5 mph - N/A   Clear
7:52 PM 70.0 °F - 63.0 °F 78% 30.14 in 10.0 mi Calm Calm - N/A   Clear
8:52 PM 66.0 °F - 62.1 °F 87% 30.15 in 10.0 mi South 3.5 mph - N/A   Clear
9:52 PM 64.9 °F - 63.0 °F 93% 30.16 in 10.0 mi Calm Calm - N/A   Clear
10:52 PM 64.0 °F - 61.0 °F 90% 30.17 in 7.0 mi Calm Calm - N/A   Clear
11:52 PM 63.0 °F - 61.0 °F 93% 30.17 in 4.0 mi Calm Calm - N/A   Clear